Location: New Canada
(47.1017°N, 68.5042°W)
Time: 17:04:59
(UTC+00:00)

KKS-1 - Pass Details

Date: 29 April 2024
Orbit: 628 x 639 km, 98.1° (Epoch: 21 May)

Event Time Altitude Azimuth Distance (km) Brightness Sun altitude
Rises 04:14:47 0° 10° (N) 2,957 ? -28.2°
Reaches altitude 10° 04:17:01 10° 7° (N) 2,043 ? -28.2°
Enters shadow 04:20:36 51° 333° (NNW) 811 ? -28.2°
